Find Starlink 34605

NORAD ID: 64677 Int'l Des: 2025-139 Owner: SPXS Country: US Constellation: starlink operational
LEOCIRCULAR

現在のビュー

3D地球を読み込み中...

About Starlink 34605

Starlink 34605 (NORAD 64677) is a starlink constellation satellite (v2 mini) launched Jun 28, 2025 by SPXS of US. It operates in LEO, CIRCULAR orbit with a mass of 575.00 kg.

次回通過

Passes for default location (London). Set your location on the main map for personalized predictions.

高度履歴

Loading altitude history...

軌道要素

1 64677U 25139P 26237.90561474 .00029657 00000-0 88527-3 0 9998
2 64677 53.1596 49.5743 0000875 85.8267 274.2835 15.34405068 66356
Epoch: Aug 25, 2026 • Age: 11 hours

現在のステータス

高度 467.8 km
遠地点 / 近地点 N/A
速度 7.64 km/s
衛星直下点 49.58°N, 54.47°E
打ち上げ日 Jun 28, 2025
運用期間 1.1 years
タイプ internet

技術仕様

分類 Payload
質量 575.00 kg
乾燥質量 530.00 kg
総質量 575.00 kg
長さ 0.30 m
直径 4.10 m
スパン 29.00 m
形状 Box + pan
製造者 SPXS
バスタイプ Starlink V2MO
フェーズステータス In Orbit
所有者/国 SPXS/US

Most Searched